| ID | Machine | Gebeurtenis | Tijd | Uren | Service | Status | USB ID | |
|---|---|---|---|---|---|---|---|---|
| 1428 | 60-053XA-S5 | ECU Lamp | 03-08-2024 14:45:49 | 610 | - | Niet ingesteld | 25A2A75249A | |
| 1426 | 60-053XA-S5 | ECU Amber Warning | 03-08-2024 14:39:27 | 610 | - | Niet ingesteld | 25A2A75249A | |
| 1424 | 60-053XA-S5 | ECU Lamp | 03-08-2024 14:34:30 | 609 | - | Niet ingesteld | 25A2A75249A | |
| 1425 | 60-053XA-S5 | ECU Lamp | 03-08-2024 14:34:05 | 609 | - | Niet ingesteld | 25A2A75249A | |
| 1420 | 60-053XA-S5 | ECU Lamp | 03-08-2024 14:26:21 | 609 | - | Niet ingesteld | 25A2A75249A | |
| 1421 | 60-053XA-S5 | ECU Lamp | 03-08-2024 14:24:38 | 609 | - | Niet ingesteld | 25A2A75249A | |
| 1416 | 60-053XA-S5 | ECU Lamp | 03-08-2024 13:50:53 | 609 | - | Niet ingesteld | 25A2A75249A | |
| 1417 | 60-053XA-S5 | ECU Amber Warning | 03-08-2024 13:49:56 | 609 | - | Niet ingesteld | 25A2A75249A | |
| 1414 | 60-053XA-S5 | Power Door Opened Warning | 03-08-2024 13:42:10 | 609 | - | Niet ingesteld | 25A2A75249A | |
| 1400 | 60-053XA-S5 | Power Door Opened Warning | 03-08-2024 13:10:05 | 608 | - | Niet ingesteld | 25A2A75249A | |
| 1386 | 60-053XA-S5 | Power Door Opened Warning | 03-08-2024 12:32:02 | 607 | - | Niet ingesteld | 25A2A75249A | |
| 1384 | 60-053XA-S5 | Engine Start | 03-08-2024 12:26:04 | 607 | - | Niet ingesteld | 25A2A75249A | |
| 1381 | 60-053XA-S5 | Fuel Monitor Event Start Fill 50% | 03-08-2024 12:17:56 | 607 | - | Niet ingesteld | 25A2A75249A | |
| 1382 | 60-053XA-S5 | Fuel Monitor Event Start Fill 53% | 03-08-2024 12:17:47 | 607 | - | Niet ingesteld | 25A2A75249A | |
| 1376 | 60-053XA-S5 | Engine Stopped | 03-08-2024 12:08:17 | 607 | - | Niet ingesteld | 25A2A75249A | |
| 1377 | 60-053XA-S5 | Engine Start | 03-08-2024 12:07:24 | 607 | - | Niet ingesteld | 25A2A75249A | |
| 901 | 60-053XA-S5 | Fail To Stop Warning | 31-07-2024 12:57:00 | 607 | - | Niet ingesteld | 25A2A75249A | |
| 815 | 60-053XA-S5 | Generator Over Current Warning | 31-07-2024 06:21:55 | 601 | - | Niet ingesteld | 25A2A75249A | |
| 816 | 60-053XA-S5 | Generator Over Volts Warning | 31-07-2024 06:21:47 | 601 | - | Niet ingesteld | 25A2A75249A | |
| 817 | 60-053XA-S5 | Generator Over Current Warning | 31-07-2024 06:21:40 | 601 | - | Niet ingesteld | 25A2A75249A | |
| 818 | 60-053XA-S5 | Fuel Monitor Event End Fill 69% | 31-07-2024 06:21:07 | 601 | - | Niet ingesteld | 25A2A75249A | |
| 819 | 60-053XA-S5 | Engine Start | 31-07-2024 06:20:59 | 601 | - | Niet ingesteld | 25A2A75249A | |
| 814 | 60-053XA-S5 | Engine Start | 31-07-2024 06:02:53 | 601 | - | Niet ingesteld | 25A2A75249A | |
| 812 | 60-053XA-S5 | Fail To Stop Warning | 31-07-2024 06:00:41 | 601 | - | Niet ingesteld | 25A2A75249A | |
| 813 | 60-053XA-S5 | Generator Over Current Warning | 31-07-2024 06:00:08 | 601 | - | Niet ingesteld | 25A2A75249A |